Washington, DC (20597)

10:23 PM EDT on July 25, 2016 (GMT -0400)
The Washington Post | | Change Station

Elev 151 ft 38.90 °N, 77.03 °W | Updated 7 seconds ago

Mostly Cloudy
Mostly Cloudy
89.4 °F
Feels Like 99 °F
N
4.0
Wind Variable Wind from NW
Gusts 10.0 mph

Today
High -- | Low -- °F
--% Chance of Precip.
Yesterday
High -- | Low -- °F
Precip. -- in
Pressure 29.90 in
Visibility 10.0 miles
Clouds Scattered Clouds 8000 ft
Mostly Cloudy 25000 ft
Heat Index 99 °F
Dew Point 74 °F
Humidity 61%
Rainfall 0.00 in
Snow Depth Not available.
6:03 AM 8:25 PM
Waning Gibbous, 60% visible
METAR KDCA 260152Z 18006KT 10SM SCT080 BKN250 31/25 A2989 RMK AO2 SLP123 T03110250
Pressure 29.90 in
Visibility 10.0 miles
Clouds Scattered Clouds 8000 ft
Mostly Cloudy 25000 ft
Heat Index 99 °F
Dew Point 74 °F
Humidity 61%
Rainfall 0.00 in
Snow Depth Not available.
6:03 AM 8:25 PM
Waning Gibbous, 60% visible
METAR KDCA 260152Z 18006KT 10SM SCT080 BKN250 31/25 A2989 RMK AO2 SLP123 T03110250
Record highs are possible for parts of the Northeast Monday and Tuesday, as parts of the central U.S. take a little breather from the worst of summer's dog day heat.

Expansive high pressure in the upper atmosphere will focus on parts of the East and West this week, sending heat indices well into the triple digits from the Mid-Atlantic states into the South.

10-Day Weather Forecast

Almanac

Astronomy

Jul. 25, 2016 Rise Set
Actual Time
Civil Twilight
Nautical Twilight
Astronomical Twilight
Moon
Length of Visible Light
Length of Day
Tomorrow will be .
, % of the Moon is Illuminated

Today's Extremes

State Highs State Lows

Community

WunderPhotos

Upload Photos

1,927,503 photos uploaded!

WunderBlog® & News

Nearby

Air Quality

  Air Quality AQ Index Pollutant
Not available.

Snow Depth

Station Depth Elevation

Earthquake Activity

City Distance Mag. Time & Date
Minimum magnitude displayed is 2.5.

Coastal Water Temperatures

Place Temperature

Stations

Nearby Weather Stations

Station Location Temp. Windchill Dew Point Humidity Wind Precip. Elev Updated Type
                   

Watches & Warnings

There are currently no watches in effect.